cover

 

Get it on iTunes StoreListen on Apple Music

Ronski Speed

#Trackname / Key / BPM / Publish dateArtists, Remixers / Label
1 138 bpm, 10A / B minor, 2018-07-06, Trance,  0  20
2 138 bpm, 6B / Bb major, 2018-06-18, Trance,  3  1
3 124 bpm, 4B / Ab major, 2018-05-28, Trance,  0  2
4 134 bpm, 4A / F minor, 2018-05-28, Trance,  1  2
5 132 bpm, 9A / E minor, 2018-05-25, Trance,  1  21
6 132 bpm, 9A / E minor, 2018-05-18, Trance,  0  21
7 132 bpm, 9A / E minor, 2018-04-02, Trance,  5  1
8 138 bpm, 11B / A major, 2018-02-02, Trance,  0  100
9 138 bpm, 9A / E minor, 2018-01-03, Trance,  1  1
10 138 bpm, 11B / A major, 2017-12-22, Trance,  0  15
11 138 bpm, 10A / B minor, 2017-12-22, Trance,  0  26
12 138 bpm, 7A / D minor, 2017-12-22, Trance,  0  25
13 123 bpm, 12B / E major, 2017-12-15, Deep House,  0  26
14 134 bpm, 8A / A minor, 2017-12-15, Trance,  0  26
15 138 bpm, 9A / E minor, 2017-12-15, Dance,  0  26
16 138 bpm, 7A / D minor, 2017-12-15, Trance,  0  26
17 138 bpm, 5A / C minor, 2017-12-11, Trance,  1  2
18 132 bpm, 5A / C minor, 2017-12-11, Trance,  1  2
19 138 bpm, 7A / D minor, 2017-12-08, Trance,  0  25
20 138 bpm, 10A / B minor, 2017-12-01, Trance,  0  20
21 138 bpm, 7A / D minor, 2017-11-20, Trance,  1  4
22 138 bpm, 8A / A minor, 2017-11-10, Trance,  0  40
23 132 bpm, 7A / D minor, 2017-11-10, Trance,  0  40
24 138 bpm, 11B / A major, 2017-11-10, Trance,  4  1
25 138 bpm, 7A / D minor, 2017-10-16, Trance,  1  1
26 134 bpm, 11A / F# minor, 2017-10-13, Trance,  0  21
27 134 bpm, 8A / A minor, 2017-10-06, Trance,  3  3
28 138 bpm, 6B / Bb major, 2017-09-29, Trance,  0  20
29 134 bpm, 4B / Ab major, 2017-09-22, Trance,  0  40
30 130 bpm, 12A / Db minor, 2017-09-08, Trance,  0  30
31 134 bpm, 9B / G major, 2017-08-25, Trance,  0  16
32 126 bpm, 11B / A major, 2017-07-31, Trance,  4  2
33 134 bpm, 11A / F# minor, 2017-07-31, Trance,  4  2
34 138 bpm, 4B / Ab major, 2017-07-28, Trance,  0  25
35 128 bpm, 11A / F# minor, 2017-06-30, Trance,  0  30
36 130 bpm, 10A / B minor, 2017-06-30, Trance,  0  24
37 138 bpm, 6B / Bb major, 2017-06-26, Trance,  1  2
38 138 bpm, 3A / Bb minor, 2017-05-29, Trance,  3  2
39 138 bpm, 3A / Bb minor, 2017-05-29, Trance,  0  2
40 138 bpm, 10A / B minor, 2017-05-24, Trance,  0  25
41 138 bpm, 10A / B minor, 2017-05-19, Trance,  0  20
42 138 bpm, 10A / B minor, 2017-04-28, Trance,  0  25
43 138 bpm, 4A / F minor, 2017-04-28, Trance,  0  25
44 138 bpm, 10A / B minor, 2017-04-28, Trance,  0  20
45 138 bpm, 10B / D major, 2017-04-21, Trance,  0  20
46 138 bpm, 8B / C major, 2017-04-14, Trance,  0  40
47 138 bpm, 10A / B minor, 2017-04-07, Trance,  0  10
48 138 bpm, 1A / Ab minor, 2017-04-07, Trance,  0  13
49 138 bpm, 8B / C major, 2017-04-07, Trance,  0  25
50 134 bpm, 8A / A minor, 2017-03-10, Trance,  0  15
51 128 bpm, 1B / B major, 2017-02-27, Trance,  1  2
52 127 bpm, 1B / B major, 2017-02-27, House,  0  2
53 138 bpm, 8B / C major, 2017-02-27, Trance,  3  1
54 134 bpm, 8A / A minor, 2017-02-17, Trance,  0  21
55 138 bpm, 5A / C minor, 2017-02-10, Trance,  0  20
56 138 bpm, 7B / F major, 2017-02-10, Trance,  0  20
57 138 bpm, 10A / B minor, 2017-02-10, Trance,  0  20
58 138 bpm, 10A / B minor, 2017-01-27, Trance,  10  3
59 138 bpm, 1A / Ab minor, 2017-01-20, Trance,  0  2
60 138 bpm, 4A / F minor, 2017-01-13, Trance,  0  20
61 138 bpm, 10A / B minor, 2017-01-13, Trance,  0  25
62 132 bpm, 3A / Bb minor, 2016-12-30, Trance,  0  25
63 130 bpm, 7B / F major, 2016-12-26, Trance,  0  6
64 138 bpm, 7A / D minor, 2016-12-26, Trance,  1  6
65 130 bpm, 7A / D minor, 2016-12-26, Trance,  0  6
66 130 bpm, 7B / F major, 2016-12-26, Trance,  0  6
67 138 bpm, 7A / D minor, 2016-12-26, Trance,  0  6
68 130 bpm, 7A / D minor, 2016-12-26, Trance,  0  6
69 138 bpm, 10A / B minor, 2016-12-23, Trance,  1  26
70 138 bpm, 12B / E major, 2016-12-19, Trance,  1  6
71 134 bpm, 8A / A minor, 2016-12-12, Trance,  3  3
72 138 bpm, 4A / F minor, 2016-12-12, Trance,  0  51
73 138 bpm, 1B / B major, 2016-12-09, Trance,  0  100
74 138 bpm, 10A / B minor, 2016-12-09, Trance,  0  100
75 138 bpm, 10A / B minor, 2016-12-05, Trance,  2  3
76 132 bpm, 8A / A minor, 2016-11-25, Trance,  0  25
77 138 bpm, 10B / D major, 2016-11-25, Trance,  0  25
78 138 bpm, 3B / Db major, 2016-11-21, Trance,  5  1
79 138 bpm, 10A / B minor, 2016-11-04, Trance,  0  25
80 138 bpm, 4B / Ab major, 2016-10-24, Trance,  1  2
81 138 bpm, 4A / F minor, 2016-10-24, Trance,  0  2
82 138 bpm, 10A / B minor, 2016-10-21, Trance,  0  25
83 138 bpm, 10A / B minor, 2016-10-21, Trance,  0  20
84 132 bpm, 8A / A minor, 2016-10-10, Trance,  3  1
85 132 bpm, 5A / C minor, 2016-10-03, Trance,  0  6
86 132 bpm, 5A / C minor, 2016-10-03, Trance,  0  6
87 135 bpm, 5A / C minor, 2016-10-03, Trance,  1  6
88 128 bpm, 5A / C minor, 2016-10-03, Trance,  0  6
89 132 bpm, 5A / C minor, 2016-10-03, Trance,  0  6
90 130 bpm, 5A / C minor, 2016-10-03, Trance,  0  6
91 128 bpm, 7A / D minor, 2016-09-30, Trance,  0  57
92 138 bpm, 10A / B minor, 2016-09-23, Trance,  3  1
93 138 bpm, 6B / Bb major, 2016-09-23, Trance,  0  20
94 128 bpm, 1A / Ab minor, 2016-09-23, Trance,  0  20
95 138 bpm, 1B / B major, 2016-08-26, Trance,  0  50
96 134 bpm, 8A / A minor, 2016-08-22, Trance,  0  7
97 132 bpm, 8A / A minor, 2016-08-22, Trance,  0  7
98 134 bpm, 8A / A minor, 2016-08-22, Trance,  0  7
99 132 bpm, 8A / A minor, 2016-08-22, Trance,  0  7
100 134 bpm, 8A / A minor, 2016-08-22, Trance,  0  7
×

Sign in

Sign in to access your personalized pages, follow artists and labels you love, and create playlists fromyour favorite tracks.

Please wait...